Simultaneous Nadir Overpasses (SNOs) Predictions

Prediction of SNOs between METOP-B and NOAA-19 Satellite Orbit:

Table of predicted SNOs for the next 14.0 days since TLE Epoch: 1/7/2023
Index Date (METOP-B) Time (METOP-B) Lat,Lon (METOP-B) SZA (METOP-B ) Date (NOAA-19) Time (NOAA-19) Lat,Lon (NOAA-19) SZA (NOAA-19 ) Distance(km) Time Diff (sec)
1 01/15/2023 10:21:17 80.93, 59.75 103.39 01/15/2023 10:20:10 80.92, 59.59 103.35 2.88 67
2 01/15/2023 11:11:58 -80.93,-132.94 76.63 01/15/2023 11:11:13 -80.92,-132.98 76.65 0.72 45
3 01/15/2023 12:02:39 80.92, 34.25 103.36 01/15/2023 12:02:09 80.92, 34.28 103.35 0.62 30
4 01/15/2023 12:53:20 -80.92,-158.44 76.66 01/15/2023 12:53:12 -80.92,-158.28 76.65 2.75 8
5 01/15/2023 13:44:00 80.93, 9.12 103.37 01/15/2023 13:44:08 80.92, 8.98 103.35 2.55 8
6 01/15/2023 14:34:41 -80.93, 176.43 76.65 01/15/2023 14:35:11 -80.92, 176.41 76.64 0.88 30
7 01/15/2023 15:25:22 80.92, -16.38 103.33 01/15/2023 15:26:07 80.92, -16.32 103.35 1.00 45



Historial Predications of SNOs between METOP-B and NOAA-19
